Time,TemperatureF,DewpointF,PressureIn,WindDirection,WindDirectionDegrees,WindSpeedMPH,WindSpeedGustMPH,Humidity,HourlyPrecipIn,Conditions,Clouds,dailyrainin,SoftwareType,DateUTC
2013-01-10 00:00:00,29.4,25.7,30.40,WSW,248,0.0,0.0,86,0.00,,,0.00,VWS V13.01,2013-01-10 05:00:00,
2013-01-10 00:05:00,29.2,25.8,30.40,WSW,248,0.0,0.0,87,0.00,,,0.00,VWS V13.01,2013-01-10 05:05:00,
2013-01-10 00:10:00,29.0,25.6,30.40,WSW,248,0.0,0.0,87,0.00,,,0.00,VWS V13.01,2013-01-10 05:10:00,
2013-01-10 00:15:00,28.9,25.5,30.40,WSW,248,0.0,0.0,87,0.00,,,0.00,VWS V13.01,2013-01-10 05:15:00,
2013-01-10 00:20:00,28.8,25.4,30.40,WSW,248,0.0,0.0,87,0.00,,,0.00,VWS V13.01,2013-01-10 05:20:00,
2013-01-10 00:25:00,28.7,25.0,30.40,WSW,248,0.0,0.0,86,0.00,,,0.00,VWS V13.01,2013-01-10 05:25:00,
2013-01-10 00:30:00,28.5,25.1,30.41,WSW,248,0.0,0.0,87,0.00,,,0.00,VWS V13.01,2013-01-10 05:30:00,
2013-01-10 00:35:00,28.4,25.0,30.41,WSW,248,0.0,0.0,87,0.00,,,0.00,VWS V13.01,2013-01-10 05:35:00,
2013-01-10 00:40:00,28.3,24.9,30.41,WSW,248,0.0,0.0,87,0.00,,,0.00,VWS V13.01,2013-01-10 05:40:00,
2013-01-10 00:45:00,28.1,25.0,30.43,WSW,248,0.0,0.0,88,0.00,,,0.00,VWS V13.01,2013-01-10 05:45:00,
2013-01-10 00:50:00,28.0,24.9,30.43,WSW,248,0.0,0.0,88,0.00,,,0.00,VWS V13.01,2013-01-10 05:50:00,
2013-01-10 00:55:00,28.0,24.9,30.43,WSW,248,0.0,0.0,88,0.00,,,0.00,VWS V13.01,2013-01-10 05:55:00,
2013-01-10 01:00:00,27.9,25.1,30.43,WSW,248,0.0,0.0,89,0.00,,,0.00,VWS V13.01,2013-01-10 06:00:00,
2013-01-10 01:05:00,27.9,25.1,30.43,WSW,248,0.0,0.0,89,0.00,,,0.00,VWS V13.01,2013-01-10 06:05:00,
2013-01-10 01:10:00,27.8,25.0,30.43,WSW,248,0.0,0.0,89,0.00,,,0.00,VWS V13.01,2013-01-10 06:10:00,
2013-01-10 01:15:00,27.8,25.0,30.43,WSW,248,0.0,0.0,89,0.00,,,0.00,VWS V13.01,2013-01-10 06:15:00,
2013-01-10 01:20:00,27.7,24.9,30.43,WSW,248,0.0,0.0,89,0.00,,,0.00,VWS V13.01,2013-01-10 06:20:00,
2013-01-10 01:25:00,27.6,24.8,30.43,WSW,248,0.0,0.0,89,0.00,,,0.00,VWS V13.01,2013-01-10 06:25:00,
2013-01-10 01:30:00,27.5,24.7,30.44,WSW,248,0.0,0.0,89,0.00,,,0.00,VWS V13.01,2013-01-10 06:30:00,
2013-01-10 01:35:00,27.4,24.6,30.44,WSW,248,0.0,0.0,89,0.00,,,0.00,VWS V13.01,2013-01-10 06:35:00,
2013-01-10 01:40:00,27.3,24.5,30.44,WSW,248,0.0,0.0,89,0.00,,,0.00,VWS V13.01,2013-01-10 06:40:00,
2013-01-10 01:45:00,27.2,24.4,30.43,WSW,248,0.0,0.0,89,0.00,,,0.00,VWS V13.01,2013-01-10 06:45:00,
2013-01-10 01:50:00,27.1,24.6,30.43,WSW,248,0.0,0.0,90,0.00,,,0.00,VWS V13.01,2013-01-10 06:50:00,
2013-01-10 01:55:00,27.0,24.5,30.43,WSW,248,0.0,0.0,90,0.00,,,0.00,VWS V13.01,2013-01-10 06:55:00,
2013-01-10 02:00:00,26.9,24.4,30.43,WSW,248,0.0,0.0,90,0.00,,,0.00,VWS V13.01,2013-01-10 07:00:00,
2013-01-10 02:05:00,26.8,24.3,30.43,WSW,248,0.0,0.0,90,0.00,,,0.00,VWS V13.01,2013-01-10 07:05:00,
2013-01-10 02:10:00,26.7,24.2,30.43,WSW,248,0.0,0.0,90,0.00,,,0.00,VWS V13.01,2013-01-10 07:10:00,
2013-01-10 02:15:00,26.6,24.1,30.44,WSW,248,0.0,0.0,90,0.00,,,0.00,VWS V13.01,2013-01-10 07:15:00,
2013-01-10 02:20:00,26.5,24.0,30.44,WSW,248,0.0,0.0,90,0.00,,,0.00,VWS V13.01,2013-01-10 07:20:00,
2013-01-10 02:25:00,26.4,23.9,30.44,WSW,248,0.0,0.0,90,0.00,,,0.00,VWS V13.01,2013-01-10 07:25:00,
2013-01-10 02:30:00,26.3,23.8,30.44,WSW,248,0.0,0.0,90,0.00,,,0.00,VWS V13.01,2013-01-10 07:30:00,
2013-01-10 02:35:00,26.2,23.7,30.44,WSW,248,0.0,0.0,90,0.00,,,0.00,VWS V13.01,2013-01-10 07:35:00,
2013-01-10 02:40:00,26.1,23.6,30.44,WSW,248,0.0,0.0,90,0.00,,,0.00,VWS V13.01,2013-01-10 07:40:00,
2013-01-10 02:45:00,26.0,23.5,30.44,WSW,248,0.0,0.0,90,0.00,,,0.00,VWS V13.01,2013-01-10 07:45:00,
2013-01-10 02:50:00,26.0,23.7,30.44,WSW,248,0.0,0.0,91,0.00,,,0.00,VWS V13.01,2013-01-10 07:50:00,
2013-01-10 02:55:00,25.9,23.6,30.44,WSW,248,0.0,0.0,91,0.00,,,0.00,VWS V13.01,2013-01-10 07:55:00,
2013-01-10 03:00:00,25.8,23.5,30.44,WSW,248,0.0,0.0,91,0.00,,,0.00,VWS V13.01,2013-01-10 08:00:00,
2013-01-10 03:05:00,25.7,23.4,30.44,WSW,248,0.0,0.0,91,0.00,,,0.00,VWS V13.01,2013-01-10 08:05:00,
2013-01-10 03:10:00,25.7,23.4,30.44,WSW,248,0.0,0.0,91,0.00,,,0.00,VWS V13.01,2013-01-10 08:10:00,
2013-01-10 03:15:00,25.6,23.3,30.44,WSW,248,0.0,0.0,91,0.00,,,0.00,VWS V13.01,2013-01-10 08:15:00,
2013-01-10 03:20:00,25.5,23.2,30.44,WSW,248,0.0,0.0,91,0.00,,,0.00,VWS V13.01,2013-01-10 08:20:00,
2013-01-10 03:25:00,25.4,23.1,30.44,WSW,248,0.0,0.0,91,0.00,,,0.00,VWS V13.01,2013-01-10 08:25:00,
2013-01-10 03:30:00,25.3,23.0,30.44,WSW,248,0.0,0.0,91,0.00,,,0.00,VWS V13.01,2013-01-10 08:30:00,
2013-01-10 03:35:00,25.2,23.0,30.44,WSW,248,0.0,0.0,91,0.00,,,0.00,VWS V13.01,2013-01-10 08:35:00,
2013-01-10 03:40:00,25.2,23.0,30.44,WSW,248,0.0,0.0,91,0.00,,,0.00,VWS V13.01,2013-01-10 08:40:00,
2013-01-10 03:45:00,25.1,23.1,30.43,WSW,248,0.0,0.0,92,0.00,,,0.00,VWS V13.01,2013-01-10 08:45:00,
2013-01-10 03:50:00,25.1,23.1,30.43,WSW,248,0.0,0.0,92,0.00,,,0.00,VWS V13.01,2013-01-10 08:50:00,
2013-01-10 03:55:00,25.0,23.0,30.43,WSW,248,0.0,0.0,92,0.00,,,0.00,VWS V13.01,2013-01-10 08:55:00,
2013-01-10 04:00:00,25.0,23.0,30.43,WSW,248,0.0,0.0,92,0.00,,,0.00,VWS V13.01,2013-01-10 09:00:00,
2013-01-10 04:05:00,24.9,22.9,30.43,WSW,248,0.0,0.0,92,0.00,,,0.00,VWS V13.01,2013-01-10 09:05:00,
2013-01-10 04:10:00,25.0,23.3,30.43,WSW,248,0.0,0.0,93,0.00,,,0.00,VWS V13.01,2013-01-10 09:10:00,
2013-01-10 04:15:00,25.0,23.3,30.43,WSW,248,0.0,0.0,93,0.00,,,0.00,VWS V13.01,2013-01-10 09:15:00,
2013-01-10 04:20:00,25.0,23.3,30.43,WSW,248,0.0,0.0,93,0.00,,,0.00,VWS V13.01,2013-01-10 09:20:00,
2013-01-10 04:25:00,25.0,23.3,30.43,WSW,248,0.0,0.0,93,0.00,,,0.00,VWS V13.01,2013-01-10 09:25:00,
2013-01-10 04:30:00,25.0,23.3,30.43,WSW,248,0.0,0.0,93,0.00,,,0.00,VWS V13.01,2013-01-10 09:30:00,
2013-01-10 04:35:00,24.9,23.2,30.43,WSW,248,0.0,0.0,93,0.00,,,0.00,VWS V13.01,2013-01-10 09:35:00,
2013-01-10 04:40:00,24.9,23.2,30.43,WSW,248,0.0,0.0,93,0.00,,,0.00,VWS V13.01,2013-01-10 09:40:00,
2013-01-10 04:45:00,24.9,23.2,30.43,WSW,248,0.0,0.0,93,0.00,,,0.00,VWS V13.01,2013-01-10 09:45:00,
2013-01-10 04:50:00,24.9,23.2,30.43,WSW,248,0.0,0.0,93,0.00,,,0.00,VWS V13.01,2013-01-10 09:50:00,
2013-01-10 04:55:00,24.8,23.1,30.43,WSW,248,0.0,0.0,93,0.00,,,0.00,VWS V13.01,2013-01-10 09:55:00,
2013-01-10 05:00:00,24.8,23.1,30.43,WSW,248,0.0,0.0,93,0.00,,,0.00,VWS V13.01,2013-01-10 10:00:00,
2013-01-10 05:05:00,24.8,23.1,30.43,WSW,248,0.0,0.0,93,0.00,,,0.00,VWS V13.01,2013-01-10 10:05:00,
2013-01-10 05:10:00,24.8,23.1,30.43,WSW,248,0.0,0.0,93,0.00,,,0.00,VWS V13.01,2013-01-10 10:10:00,
2013-01-10 05:15:00,24.7,23.0,30.42,WSW,248,0.0,0.0,93,0.00,,,0.00,VWS V13.01,2013-01-10 10:15:00,
2013-01-10 05:20:00,24.7,23.0,30.42,WSW,248,0.0,0.0,93,0.00,,,0.00,VWS V13.01,2013-01-10 10:20:00,
2013-01-10 05:25:00,24.7,23.0,30.42,WSW,248,0.0,0.0,93,0.00,,,0.00,VWS V13.01,2013-01-10 10:25:00,
2013-01-10 05:30:00,24.6,22.9,30.43,WSW,248,0.0,0.0,93,0.00,,,0.00,VWS V13.01,2013-01-10 10:30:00,
2013-01-10 05:35:00,24.6,22.9,30.43,WSW,248,0.0,0.0,93,0.00,,,0.00,VWS V13.01,2013-01-10 10:35:00,
2013-01-10 05:40:00,24.5,22.8,30.43,WSW,248,0.0,0.0,93,0.00,,,0.00,VWS V13.01,2013-01-10 10:40:00,
2013-01-10 05:45:00,24.5,22.8,30.43,WSW,248,0.0,0.0,93,0.00,,,0.00,VWS V13.01,2013-01-10 10:45:00,
2013-01-10 05:50:00,24.4,22.7,30.43,WSW,248,0.0,0.0,93,0.00,,,0.00,VWS V13.01,2013-01-10 10:50:00,
2013-01-10 05:55:00,24.4,22.7,30.43,WSW,248,0.0,0.0,93,0.00,,,0.00,VWS V13.01,2013-01-10 10:55:00,
2013-01-10 06:00:00,24.3,22.6,30.42,WSW,248,0.0,0.0,93,0.00,,,0.00,VWS V13.01,2013-01-10 11:00:00,
2013-01-10 06:05:00,24.2,22.5,30.42,WSW,248,0.0,0.0,93,0.00,,,0.00,VWS V13.01,2013-01-10 11:05:00,
2013-01-10 06:10:00,24.2,22.5,30.42,WSW,248,0.0,0.0,93,0.00,,,0.00,VWS V13.01,2013-01-10 11:10:00,
2013-01-10 06:15:00,24.2,22.5,30.43,WSW,248,0.0,0.0,93,0.00,,,0.00,VWS V13.01,2013-01-10 11:15:00,
2013-01-10 06:20:00,24.2,22.7,30.43,WSW,248,0.0,0.0,94,0.00,,,0.00,VWS V13.01,2013-01-10 11:20:00,
2013-01-10 06:25:00,24.2,22.7,30.43,WSW,248,0.0,0.0,94,0.00,,,0.00,VWS V13.01,2013-01-10 11:25:00,
2013-01-10 06:30:00,24.2,22.7,30.43,WSW,248,0.0,0.0,94,0.00,,,0.00,VWS V13.01,2013-01-10 11:30:00,
2013-01-10 06:35:00,24.2,22.7,30.43,WSW,248,0.0,0.0,94,0.00,,,0.00,VWS V13.01,2013-01-10 11:35:00,
2013-01-10 06:40:00,24.1,22.6,30.43,WSW,248,0.0,0.0,94,0.00,,,0.00,VWS V13.01,2013-01-10 11:40:00,
2013-01-10 06:45:00,24.2,22.7,30.42,WSW,248,0.0,0.0,94,0.00,,,0.00,VWS V13.01,2013-01-10 11:45:00,
2013-01-10 06:50:00,24.2,22.7,30.42,WSW,248,0.0,0.0,94,0.00,,,0.00,VWS V13.01,2013-01-10 11:50:00,
2013-01-10 06:55:00,24.2,22.7,30.42,WSW,248,0.0,0.0,94,0.00,,,0.00,VWS V13.01,2013-01-10 11:55:00,
2013-01-10 07:00:00,24.1,22.6,30.42,WSW,248,0.0,0.0,94,0.00,,,0.00,VWS V13.01,2013-01-10 12:00:00,
2013-01-10 07:05:00,24.1,22.6,30.42,WSW,248,0.0,0.0,94,0.00,,,0.00,VWS V13.01,2013-01-10 12:05:00,
2013-01-10 07:10:00,24.2,22.7,30.42,WSW,248,0.0,0.0,94,0.00,,,0.00,VWS V13.01,2013-01-10 12:10:00,
2013-01-10 07:15:00,24.2,22.7,30.42,WSW,248,0.0,0.0,94,0.00,,,0.00,VWS V13.01,2013-01-10 12:15:00,
2013-01-10 07:20:00,24.3,22.8,30.42,WSW,248,0.0,0.0,94,0.00,,,0.00,VWS V13.01,2013-01-10 12:20:00,
2013-01-10 07:25:00,24.3,22.8,30.42,WSW,248,0.0,0.0,94,0.00,,,0.00,VWS V13.01,2013-01-10 12:25:00,
2013-01-10 07:30:00,24.5,23.3,30.42,WSW,248,0.0,0.0,95,0.00,,,0.00,VWS V13.01,2013-01-10 12:30:00,
2013-01-10 07:35:00,24.6,23.4,30.42,WSW,248,0.0,0.0,95,0.00,,,0.00,VWS V13.01,2013-01-10 12:35:00,
2013-01-10 07:40:00,24.7,23.5,30.42,WSW,248,0.0,0.0,95,0.00,,,0.00,VWS V13.01,2013-01-10 12:40:00,
2013-01-10 07:45:00,24.8,23.6,30.44,WSW,248,0.0,0.0,95,0.00,,,0.00,VWS V13.01,2013-01-10 12:45:00,
2013-01-10 07:50:00,24.8,23.6,30.44,WSW,248,0.0,0.0,95,0.00,,,0.00,VWS V13.01,2013-01-10 12:50:00,
2013-01-10 07:55:00,24.8,23.6,30.44,WSW,248,0.0,0.0,95,0.00,,,0.00,VWS V13.01,2013-01-10 12:55:00,
2013-01-10 08:00:00,24.9,23.7,30.44,WSW,248,0.0,0.0,95,0.00,,,0.00,VWS V13.01,2013-01-10 13:00:00,
2013-01-10 08:05:00,24.9,23.7,30.44,WSW,248,0.0,0.0,95,0.00,,,0.00,VWS V13.01,2013-01-10 13:05:00,
2013-01-10 08:10:00,24.9,23.7,30.44,WSW,248,0.0,0.0,95,0.00,,,0.00,VWS V13.01,2013-01-10 13:10:00,
2013-01-10 08:15:00,24.9,23.7,30.44,WSW,248,0.0,0.0,95,0.00,,,0.00,VWS V13.01,2013-01-10 13:15:00,
2013-01-10 08:20:00,25.0,23.8,30.44,WSW,248,0.0,0.0,95,0.00,,,0.00,VWS V13.01,2013-01-10 13:20:00,
2013-01-10 08:25:00,25.2,24.0,30.44,WSW,248,0.0,0.0,95,0.00,,,0.00,VWS V13.01,2013-01-10 13:25:00,
2013-01-10 08:30:00,25.2,24.0,30.44,WSW,248,0.0,0.0,95,0.00,,,0.00,VWS V13.01,2013-01-10 13:30:00,
2013-01-10 08:35:00,25.3,24.1,30.44,WSW,248,0.0,0.0,95,0.00,,,0.00,VWS V13.01,2013-01-10 13:35:00,
2013-01-10 08:40:00,25.3,24.1,30.44,WSW,248,0.0,0.0,95,0.00,,,0.00,VWS V13.01,2013-01-10 13:40:00,
2013-01-10 08:45:00,25.3,24.1,30.44,WSW,248,0.0,0.0,95,0.00,,,0.00,VWS V13.01,2013-01-10 13:45:00,
2013-01-10 08:50:00,25.4,24.2,30.44,WSW,248,0.0,0.0,95,0.00,,,0.00,VWS V13.01,2013-01-10 13:50:00,
2013-01-10 08:55:00,25.5,24.3,30.44,WSW,248,0.0,0.0,95,0.00,,,0.00,VWS V13.01,2013-01-10 13:55:00,
2013-01-10 09:00:00,25.6,24.4,30.44,WSW,248,0.0,0.0,95,0.00,,,0.00,VWS V13.01,2013-01-10 14:00:00,
2013-01-10 09:05:00,25.8,24.6,30.44,WSW,248,0.0,0.0,95,0.00,,,0.00,VWS V13.01,2013-01-10 14:05:00,
2013-01-10 09:10:00,26.1,24.9,30.44,WSW,248,0.0,0.0,95,0.00,,,0.00,VWS V13.01,2013-01-10 14:10:00,
2013-01-10 09:15:00,26.4,25.2,30.44,WSW,248,0.0,0.0,95,0.00,,,0.00,VWS V13.01,2013-01-10 14:15:00,
2013-01-10 09:20:00,26.7,25.5,30.44,WSW,248,0.0,1.0,95,0.00,,,0.00,VWS V13.01,2013-01-10 14:20:00,
2013-01-10 09:25:00,27.5,26.3,30.44,WSW,248,0.0,1.0,95,0.00,,,0.00,VWS V13.01,2013-01-10 14:25:00,
2013-01-10 09:30:00,28.2,27.0,30.43,WSW,248,0.0,1.0,95,0.00,,,0.00,VWS V13.01,2013-01-10 14:30:00,
2013-01-10 09:35:00,28.8,27.0,30.43,WSW,248,0.0,1.0,93,0.00,,,0.00,VWS V13.01,2013-01-10 14:35:00,
2013-01-10 09:40:00,29.3,27.3,30.43,WSW,248,0.0,0.0,92,0.00,,,0.00,VWS V13.01,2013-01-10 14:40:00,
2013-01-10 09:45:00,29.7,27.4,30.42,WSW,248,0.0,1.0,91,0.00,,,0.00,VWS V13.01,2013-01-10 14:45:00,
2013-01-10 09:50:00,30.2,27.6,30.42,WSW,248,0.0,1.0,90,0.00,,,0.00,VWS V13.01,2013-01-10 14:50:00,
2013-01-10 09:55:00,30.7,28.1,30.42,WSW,248,0.0,1.0,90,0.00,,,0.00,VWS V13.01,2013-01-10 14:55:00,
2013-01-10 10:00:00,31.2,28.3,30.42,WSW,248,0.0,1.0,89,0.00,,,0.00,VWS V13.01,2013-01-10 15:00:00,
2013-01-10 10:05:00,31.9,28.8,30.42,East,90,0.0,1.0,88,0.00,,,0.00,VWS V13.01,2013-01-10 15:05:00,
2013-01-10 10:10:00,32.6,29.2,30.42,East,90,0.0,1.0,87,0.00,,,0.00,VWS V13.01,2013-01-10 15:10:00,
2013-01-10 10:15:00,33.4,29.4,30.42,East,90,0.0,2.0,85,0.00,,,0.00,VWS V13.01,2013-01-10 15:15:00,
2013-01-10 10:20:00,34.0,29.7,30.42,East,90,0.0,3.0,84,0.00,,,0.00,VWS V13.01,2013-01-10 15:20:00,
2013-01-10 10:25:00,34.4,29.8,30.42,ENE,68,0.0,2.0,83,0.00,,,0.00,VWS V13.01,2013-01-10 15:25:00,
2013-01-10 10:30:00,34.9,30.0,30.41,ESE,112,1.0,3.0,82,0.00,,,0.00,VWS V13.01,2013-01-10 15:30:00,
2013-01-10 10:35:00,35.3,30.4,30.41,East,90,1.0,3.0,82,0.00,,,0.00,VWS V13.01,2013-01-10 15:35:00,
2013-01-10 10:40:00,35.7,30.5,30.41,East,90,0.0,2.0,81,0.00,,,0.00,VWS V13.01,2013-01-10 15:40:00,
2013-01-10 10:45:00,36.1,30.5,30.40,East,90,1.0,4.0,80,0.00,,,0.00,VWS V13.01,2013-01-10 15:45:00,
2013-01-10 10:50:00,36.6,30.7,30.40,East,90,1.0,4.0,79,0.00,,,0.00,VWS V13.01,2013-01-10 15:50:00,
2013-01-10 10:55:00,36.9,31.0,30.40,East,90,1.0,3.0,79,0.00,,,0.00,VWS V13.01,2013-01-10 15:55:00,
2013-01-10 11:00:00,36.9,30.7,30.40,ESE,112,1.0,5.0,78,0.00,,,0.00,VWS V13.01,2013-01-10 16:00:00,
2013-01-10 11:05:00,37.1,30.9,30.40,East,90,1.0,3.0,78,0.00,,,0.00,VWS V13.01,2013-01-10 16:05:00,
2013-01-10 11:10:00,37.5,31.3,30.40,East,90,0.0,2.0,78,0.00,,,0.00,VWS V13.01,2013-01-10 16:10:00,
2013-01-10 11:15:00,37.5,31.0,30.40,East,90,0.0,2.0,77,0.00,,,0.00,VWS V13.01,2013-01-10 16:15:00,
2013-01-10 11:20:00,37.5,31.0,30.40,East,90,0.0,2.0,77,0.00,,,0.00,VWS V13.01,2013-01-10 16:20:00,
2013-01-10 11:25:00,37.8,31.2,30.40,ENE,68,0.0,3.0,77,0.00,,,0.00,VWS V13.01,2013-01-10 16:25:00,
2013-01-10 11:30:00,38.4,31.5,30.38,East,90,1.0,4.0,76,0.00,,,0.00,VWS V13.01,2013-01-10 16:30:00,
2013-01-10 11:35:00,38.9,31.7,30.38,ENE,68,1.0,6.0,75,0.01,,,0.01,VWS V13.01,2013-01-10 16:35:00,
2013-01-10 11:40:00,39.2,31.6,30.38,East,90,1.0,5.0,74,0.01,,,0.01,VWS V13.01,2013-01-10 16:40:00,
2013-01-10 11:45:00,39.4,31.5,30.37,ENE,68,1.0,4.0,73,0.01,,,0.01,VWS V13.01,2013-01-10 16:45:00,
2013-01-10 11:50:00,39.6,31.3,30.37,East,90,2.0,6.0,72,0.01,,,0.01,VWS V13.01,2013-01-10 16:50:00,
2013-01-10 11:55:00,39.5,31.2,30.37,East,90,2.0,7.0,72,0.01,,,0.01,VWS V13.01,2013-01-10 16:55:00,
2013-01-10 12:00:00,39.4,31.1,30.36,ESE,112,2.0,6.0,72,0.01,,,0.01,VWS V13.01,2013-01-10 17:00:00,
2013-01-10 12:05:00,39.5,31.6,30.36,East,90,1.0,3.0,73,0.01,,,0.01,VWS V13.01,2013-01-10 17:05:00,
2013-01-10 12:10:00,39.7,31.8,30.36,East,90,0.0,3.0,73,0.01,,,0.01,VWS V13.01,2013-01-10 17:10:00,
2013-01-10 12:15:00,39.8,31.5,30.35,ESE,112,1.0,4.0,72,0.01,,,0.01,VWS V13.01,2013-01-10 17:15:00,
2013-01-10 12:20:00,39.8,31.9,30.35,East,90,2.0,6.0,73,0.01,,,0.01,VWS V13.01,2013-01-10 17:20:00,
2013-01-10 12:25:00,39.9,31.6,30.35,ESE,112,1.0,5.0,72,0.01,,,0.01,VWS V13.01,2013-01-10 17:25:00,
2013-01-10 12:30:00,40.0,32.1,30.34,ENE,68,0.0,3.0,73,0.01,,,0.01,VWS V13.01,2013-01-10 17:30:00,
2013-01-10 12:35:00,40.2,31.9,30.34,East,90,1.0,4.0,72,0.01,,,0.01,VWS V13.01,2013-01-10 17:35:00,
2013-01-10 12:40:00,40.3,31.7,30.34,ESE,112,1.0,7.0,71,0.00,,,0.01,VWS V13.01,2013-01-10 17:40:00,
2013-01-10 12:45:00,40.2,31.6,30.33,ESE,112,2.0,6.0,71,0.00,,,0.01,VWS V13.01,2013-01-10 17:45:00,
2013-01-10 12:50:00,40.3,31.7,30.33,East,90,2.0,10.0,71,0.00,,,0.01,VWS V13.01,2013-01-10 17:50:00,
2013-01-10 12:55:00,40.5,31.9,30.33,ESE,112,2.0,9.0,71,0.00,,,0.01,VWS V13.01,2013-01-10 17:55:00,
2013-01-10 13:00:00,40.5,31.9,30.32,ESE,112,2.0,8.0,71,0.00,,,0.01,VWS V13.01,2013-01-10 18:00:00,
2013-01-10 13:05:00,40.5,31.9,30.32,East,90,1.0,5.0,71,0.00,,,0.01,VWS V13.01,2013-01-10 18:05:00,
2013-01-10 13:10:00,40.7,31.7,30.32,ESE,112,2.0,8.0,70,0.00,,,0.01,VWS V13.01,2013-01-10 18:10:00,
2013-01-10 13:15:00,40.9,31.5,30.30,East,90,1.0,6.0,69,0.00,,,0.01,VWS V13.01,2013-01-10 18:15:00,
2013-01-10 13:20:00,40.9,31.9,30.30,East,90,1.0,7.0,70,0.00,,,0.01,VWS V13.01,2013-01-10 18:20:00,
2013-01-10 13:25:00,40.9,31.9,30.30,East,90,1.0,4.0,70,0.00,,,0.01,VWS V13.01,2013-01-10 18:25:00,
2013-01-10 13:30:00,41.1,31.7,30.29,ESE,112,1.0,7.0,69,0.00,,,0.01,VWS V13.01,2013-01-10 18:30:00,
2013-01-10 13:35:00,41.2,31.8,30.29,East,90,1.0,5.0,69,0.00,,,0.01,VWS V13.01,2013-01-10 18:35:00,
2013-01-10 13:40:00,41.2,31.8,30.29,East,90,1.0,3.0,69,0.00,,,0.01,VWS V13.01,2013-01-10 18:40:00,
2013-01-10 13:45:00,41.2,31.8,30.29,ESE,112,1.0,4.0,69,0.00,,,0.01,VWS V13.01,2013-01-10 18:45:00,
2013-01-10 13:50:00,41.1,31.7,30.29,East,90,3.0,9.0,69,0.00,,,0.01,VWS V13.01,2013-01-10 18:50:00,
2013-01-10 13:55:00,41.0,31.6,30.29,East,90,2.0,7.0,69,0.00,,,0.01,VWS V13.01,2013-01-10 18:55:00,
2013-01-10 14:25:00,41.3,32.3,30.27,ENE,65,4.0,4.0,70,0.00,,,0.01,VWS V13.01,2013-01-10 19:25:00,
2013-01-10 14:30:00,41.2,32.2,30.26,East,84,0.0,6.0,70,0.00,,,0.01,VWS V13.01,2013-01-10 19:30:00,
2013-01-10 14:35:00,41.2,32.2,30.26,ESE,114,0.0,6.0,70,0.00,,,0.01,VWS V13.01,2013-01-10 19:35:00,
2013-01-10 14:40:00,41.1,31.7,30.26,ENE,72,0.0,5.0,69,0.00,,,0.01,VWS V13.01,2013-01-10 19:40:00,
2013-01-10 14:45:00,41.2,31.5,30.26,East,79,1.0,10.0,68,0.00,,,0.01,VWS V13.01,2013-01-10 19:45:00,
2013-01-10 14:50:00,41.2,31.8,30.26,ESE,118,0.0,5.0,69,0.00,,,0.01,VWS V13.01,2013-01-10 19:50:00,
2013-01-10 14:55:00,41.2,31.8,30.26,ESE,110,0.0,2.0,69,0.00,,,0.01,VWS V13.01,2013-01-10 19:55:00,
2013-01-10 15:00:00,41.2,31.8,30.26,ESE,114,1.0,6.0,69,0.00,,,0.01,VWS V13.01,2013-01-10 20:00:00,
2013-01-10 15:05:00,41.2,32.2,30.26,East,84,2.0,3.0,70,0.00,,,0.01,VWS V13.01,2013-01-10 20:05:00,
2013-01-10 15:10:00,41.1,32.1,30.26,East,92,3.0,6.0,70,0.00,,,0.01,VWS V13.01,2013-01-10 20:10:00,
2013-01-10 15:15:00,41.1,32.4,30.24,ESE,119,2.0,10.0,71,0.00,,,0.01,VWS V13.01,2013-01-10 20:15:00,
2013-01-10 15:20:00,41.1,32.1,30.24,East,80,1.0,4.0,70,0.00,,,0.01,VWS V13.01,2013-01-10 20:20:00,
2013-01-10 15:25:00,41.1,31.7,30.24,East,88,0.0,6.0,69,0.00,,,0.01,VWS V13.01,2013-01-10 20:25:00,
2013-01-10 15:30:00,40.9,31.2,30.24,East,98,0.0,6.0,68,0.00,,,0.01,VWS V13.01,2013-01-10 20:30:00,
2013-01-10 15:35:00,40.8,31.1,30.24,East,91,0.0,7.0,68,0.00,,,0.01,VWS V13.01,2013-01-10 20:35:00,
2013-01-10 15:40:00,40.7,31.3,30.24,East,100,1.0,9.0,69,0.00,,,0.01,VWS V13.01,2013-01-10 20:40:00,
2013-01-10 15:45:00,40.7,31.0,30.22,ESE,118,3.0,7.0,68,0.00,,,0.01,VWS V13.01,2013-01-10 20:45:00,
2013-01-10 15:50:00,40.6,31.6,30.22,East,84,0.0,3.0,70,0.00,,,0.01,VWS V13.01,2013-01-10 20:50:00,
2013-01-10 15:55:00,40.6,31.6,30.22,East,83,6.0,9.0,70,0.00,,,0.01,VWS V13.01,2013-01-10 20:55:00,
2013-01-10 16:00:00,40.5,31.1,30.20,ESE,104,2.0,6.0,69,0.00,,,0.01,VWS V13.01,2013-01-10 21:00:00,
2013-01-10 16:05:00,40.4,31.0,30.20,ESE,105,1.0,5.0,69,0.00,,,0.01,VWS V13.01,2013-01-10 21:05:00,
2013-01-10 16:10:00,40.4,30.7,30.20,East,84,0.0,6.0,68,0.00,,,0.01,VWS V13.01,2013-01-10 21:10:00,
2013-01-10 16:15:00,40.3,31.0,30.20,East,86,2.0,6.0,69,0.00,,,0.01,VWS V13.01,2013-01-10 21:15:00,
2013-01-10 16:20:00,40.2,30.9,30.20,ENE,64,1.0,3.0,69,0.00,,,0.01,VWS V13.01,2013-01-10 21:20:00,
2013-01-10 16:25:00,40.1,30.8,30.20,East,88,3.0,7.0,69,0.00,,,0.01,VWS V13.01,2013-01-10 21:25:00,
2013-01-10 16:35:00,39.9,30.9,30.20,ESE,114,0.0,3.0,70,0.00,,,0.01,VWS V13.01,2013-01-10 21:35:00,
2013-01-10 16:40:00,39.8,30.8,30.20,ESE,115,4.0,4.0,70,0.00,,,0.01,VWS V13.01,2013-01-10 21:40:00,
2013-01-10 16:45:00,39.8,30.8,30.20,East,95,0.0,7.0,70,0.00,,,0.01,VWS V13.01,2013-01-10 21:45:00,
2013-01-10 16:50:00,39.7,30.7,30.20,ENE,62,1.0,7.0,70,0.00,,,0.01,VWS V13.01,2013-01-10 21:50:00,
2013-01-10 16:55:00,39.7,30.7,30.20,SE,126,2.0,9.0,70,0.00,,,0.01,VWS V13.01,2013-01-10 21:55:00,
2013-01-10 17:00:00,39.6,31.0,30.20,ENE,68,0.0,6.0,71,0.00,,,0.01,VWS V13.01,2013-01-10 22:00:00,
2013-01-10 17:05:00,39.5,30.9,30.20,ESE,121,1.0,5.0,71,0.00,,,0.01,VWS V13.01,2013-01-10 22:05:00,
2013-01-10 17:10:00,39.4,31.1,30.20,East,96,6.0,10.0,72,0.00,,,0.01,VWS V13.01,2013-01-10 22:10:00,
2013-01-10 17:15:00,39.3,31.4,30.20,SE,136,4.0,7.0,73,0.00,,,0.01,VWS V13.01,2013-01-10 22:15:00,
2013-01-10 17:20:00,39.1,31.2,30.20,East,93,0.0,6.0,73,0.00,,,0.01,VWS V13.01,2013-01-10 22:20:00,
2013-01-10 17:25:00,39.0,31.4,30.20,East,79,5.0,7.0,74,0.00,,,0.01,VWS V13.01,2013-01-10 22:25:00,
2013-01-10 17:30:00,38.9,31.3,30.19,East,86,1.0,7.0,74,0.00,,,0.01,VWS V13.01,2013-01-10 22:30:00,
2013-01-10 17:35:00,38.9,31.3,30.19,East,97,1.0,6.0,74,0.00,,,0.01,VWS V13.01,2013-01-10 22:35:00,
2013-01-10 17:40:00,38.8,31.2,30.19,East,86,1.0,7.0,74,0.00,,,0.01,VWS V13.01,2013-01-10 22:40:00,
2013-01-10 17:45:00,38.8,31.2,30.18,ENE,73,3.0,9.0,74,0.00,,,0.01,VWS V13.01,2013-01-10 22:45:00,
2013-01-10 17:50:00,38.8,31.2,30.18,ESE,123,3.0,6.0,74,0.00,,,0.01,VWS V13.01,2013-01-10 22:50:00,
2013-01-10 17:55:00,38.8,31.6,30.18,East,82,0.0,6.0,75,0.00,,,0.01,VWS V13.01,2013-01-10 22:55:00,
2013-01-10 18:00:00,38.8,31.9,30.19,East,99,3.0,10.0,76,0.00,,,0.01,VWS V13.01,2013-01-10 23:00:00,
2013-01-10 18:05:00,38.7,32.1,30.19,East,93,2.0,7.0,77,0.00,,,0.01,VWS V13.01,2013-01-10 23:05:00,
2013-01-10 18:10:00,38.6,32.7,30.19,ENE,72,2.0,3.0,79,0.01,,,0.02,VWS V13.01,2013-01-10 23:10:00,
2013-01-10 18:15:00,38.3,33.0,30.17,East,83,0.0,3.0,81,0.01,,,0.02,VWS V13.01,2013-01-10 23:15:00,
2013-01-10 18:20:00,38.0,33.0,30.17,East,97,0.0,6.0,82,0.01,,,0.02,VWS V13.01,2013-01-10 23:20:00,
2013-01-10 18:25:00,37.8,32.8,30.17,East,84,2.0,5.0,82,0.01,,,0.02,VWS V13.01,2013-01-10 23:25:00,
2013-01-10 18:35:00,37.5,32.8,30.17,East,96,0.0,4.0,83,0.01,,,0.02,VWS V13.01,2013-01-10 23:35:00,
2013-01-10 18:39:00,37.6,32.9,30.17,East,93,1.0,3.0,83,0.01,,,0.02,VWS V13.01,2013-01-10 23:39:00,
2013-01-10 18:40:00,37.5,32.8,30.17,East,94,0.0,7.0,83,0.01,,,0.02,VWS V13.01,2013-01-10 23:40:00,
2013-01-10 18:44:00,37.5,32.8,30.17,East,94,3.0,5.0,83,0.01,,,0.02,VWS V13.01,2013-01-10 23:44:00,
2013-01-10 18:45:00,37.5,32.8,30.16,East,86,2.0,5.0,83,0.01,,,0.02,VWS V13.01,2013-01-10 23:45:00,
2013-01-10 18:49:00,37.5,32.8,30.17,East,96,0.0,1.0,83,0.01,,,0.02,VWS V13.01,2013-01-10 23:49:00,
2013-01-10 18:50:00,37.6,32.9,30.16,ESE,105,3.0,7.0,83,0.01,,,0.02,VWS V13.01,2013-01-10 23:50:00,
2013-01-10 18:54:00,37.6,32.9,30.16,East,80,1.0,3.0,83,0.01,,,0.02,VWS V13.01,2013-01-10 23:54:00,
2013-01-10 18:55:00,37.6,32.9,30.16,East,91,0.0,6.0,83,0.01,,,0.02,VWS V13.01,2013-01-10 23:55:00,
2013-01-10 18:59:00,37.6,32.9,30.16,East,93,1.0,4.0,83,0.01,,,0.02,VWS V13.01,2013-01-10 23:59:00,
2013-01-10 19:00:00,37.6,32.9,30.15,ESE,110,2.0,6.0,83,0.01,,,0.02,VWS V13.01,2013-01-11 00:00:00,
2013-01-10 19:04:00,37.6,32.9,30.16,ESE,109,1.0,6.0,83,0.01,,,0.02,VWS V13.01,2013-01-11 00:04:00,
2013-01-10 19:09:00,37.6,33.2,30.15,East,92,2.0,4.0,84,0.01,,,0.02,VWS V13.01,2013-01-11 00:09:00,
2013-01-10 19:14:00,37.5,33.4,30.15,East,96,2.0,6.0,85,0.02,,,0.03,VWS V13.01,2013-01-11 00:14:00,
2013-01-10 19:19:00,37.4,33.6,30.15,ENE,77,1.0,3.0,86,0.01,,,0.03,VWS V13.01,2013-01-11 00:19:00,
2013-01-10 19:24:00,37.2,33.7,30.14,East,80,5.0,5.0,87,0.02,,,0.04,VWS V13.01,2013-01-11 00:24:00,
2013-01-10 19:29:00,37.0,33.8,30.14,ENE,73,5.0,6.0,88,0.02,,,0.04,VWS V13.01,2013-01-11 00:29:00,
2013-01-10 19:34:00,36.9,33.7,30.14,East,82,3.0,4.0,88,0.02,,,0.04,VWS V13.01,2013-01-11 00:34:00,
2013-01-10 19:39:00,36.9,33.7,30.12,ENE,66,3.0,8.0,88,0.02,,,0.04,VWS V13.01,2013-01-11 00:39:00,
2013-01-10 19:44:00,36.9,33.7,30.12,ENE,75,2.0,5.0,88,0.02,,,0.04,VWS V13.01,2013-01-11 00:44:00,
2013-01-10 19:49:00,36.9,33.7,30.12,East,87,3.0,5.0,88,0.02,,,0.04,VWS V13.01,2013-01-11 00:49:00,
2013-01-10 19:54:00,36.9,33.7,30.11,ESE,102,6.0,6.0,88,0.02,,,0.04,VWS V13.01,2013-01-11 00:54:00,
2013-01-10 19:59:00,36.9,33.7,30.11,ESE,112,2.0,6.0,88,0.02,,,0.04,VWS V13.01,2013-01-11 00:59:00,
2013-01-10 20:04:00,36.9,34.0,30.11,ESE,108,4.0,5.0,89,0.02,,,0.04,VWS V13.01,2013-01-11 01:04:00,
2013-01-10 20:09:00,37.0,34.1,30.11,ESE,105,0.0,5.0,89,0.02,,,0.04,VWS V13.01,2013-01-11 01:09:00,
2013-01-10 20:14:00,37.0,34.1,30.11,ENE,73,1.0,4.0,89,0.02,,,0.04,VWS V13.01,2013-01-11 01:14:00,
2013-01-10 20:19:00,37.0,34.1,30.11,East,96,0.0,5.0,89,0.01,,,0.04,VWS V13.01,2013-01-11 01:19:00,
2013-01-10 20:24:00,37.0,34.1,30.10,East,101,0.0,5.0,89,0.00,,,0.04,VWS V13.01,2013-01-11 01:24:00,
2013-01-10 20:29:00,37.0,34.3,30.10,East,81,2.0,5.0,90,0.00,,,0.04,VWS V13.01,2013-01-11 01:29:00,
2013-01-10 20:38:00,37.0,34.3,30.08,East,93,1.0,7.0,90,0.01,,,0.05,VWS V13.01,2013-01-11 01:38:00,
2013-01-10 20:43:00,36.9,34.2,30.08,East,83,3.0,7.0,90,0.01,,,0.05,VWS V13.01,2013-01-11 01:43:00,
2013-01-10 20:48:00,36.9,34.5,30.08,East,82,4.0,10.0,91,0.01,,,0.05,VWS V13.01,2013-01-11 01:48:00,
2013-01-10 20:53:00,36.8,34.4,30.06,East,99,5.0,7.0,91,0.02,,,0.06,VWS V13.01,2013-01-11 01:53:00,
2013-01-10 20:58:00,36.8,34.4,30.06,East,82,2.0,7.0,91,0.02,,,0.06,VWS V13.01,2013-01-11 01:58:00,
2013-01-10 21:03:00,36.8,34.4,30.06,East,101,3.0,9.0,91,0.02,,,0.06,VWS V13.01,2013-01-11 02:03:00,
2013-01-10 21:08:00,36.8,34.4,30.06,East,101,3.0,7.0,91,0.03,,,0.07,VWS V13.01,2013-01-11 02:08:00,
2013-01-10 21:13:00,36.8,34.7,30.06,ESE,120,4.0,7.0,92,0.03,,,0.07,VWS V13.01,2013-01-11 02:13:00,
2013-01-10 21:18:00,36.8,34.7,30.06,East,83,4.0,6.0,92,0.03,,,0.07,VWS V13.01,2013-01-11 02:18:00,
2013-01-10 21:23:00,36.8,34.7,30.05,ESE,105,2.0,5.0,92,0.03,,,0.07,VWS V13.01,2013-01-11 02:23:00,
2013-01-10 21:28:00,36.8,34.7,30.05,ESE,109,3.0,5.0,92,0.03,,,0.07,VWS V13.01,2013-01-11 02:28:00,
2013-01-10 21:33:00,36.9,34.5,30.05,ESE,116,0.0,7.0,91,0.03,,,0.07,VWS V13.01,2013-01-11 02:33:00,
2013-01-10 21:38:00,37.0,34.6,30.04,East,101,1.0,6.0,91,0.02,,,0.07,VWS V13.01,2013-01-11 02:38:00,
2013-01-10 21:43:00,37.0,34.6,30.04,East,91,1.0,5.0,91,0.02,,,0.07,VWS V13.01,2013-01-11 02:43:00,
2013-01-10 21:48:00,37.0,34.6,30.04,ESE,121,3.0,7.0,91,0.03,,,0.08,VWS V13.01,2013-01-11 02:48:00,
2013-01-10 21:53:00,37.0,34.6,30.02,East,81,1.0,6.0,91,0.04,,,0.09,VWS V13.01,2013-01-11 02:53:00,
2013-01-10 21:58:00,37.0,34.9,30.02,East,96,1.0,1.0,92,0.03,,,0.09,VWS V13.01,2013-01-11 02:58:00,
2013-01-10 22:03:00,36.9,34.8,30.02,East,101,2.0,3.0,92,0.03,,,0.09,VWS V13.01,2013-01-11 03:03:00,
2013-01-10 22:08:00,36.9,34.8,30.02,East,81,0.0,5.0,92,0.03,,,0.09,VWS V13.01,2013-01-11 03:08:00,
2013-01-10 22:13:00,36.9,35.1,30.02,ESE,115,3.0,5.0,93,0.02,,,0.09,VWS V13.01,2013-01-11 03:13:00,
2013-01-10 22:18:00,36.9,35.1,30.02,East,86,2.0,3.0,93,0.02,,,0.09,VWS V13.01,2013-01-11 03:18:00,
2013-01-10 22:23:00,37.0,35.2,30.01,East,84,5.0,5.0,93,0.03,,,0.10,VWS V13.01,2013-01-11 03:23:00,
2013-01-10 22:28:00,37.0,35.2,30.01,ESE,105,3.0,4.0,93,0.06,,,0.13,VWS V13.01,2013-01-11 03:28:00,
2013-01-10 22:33:00,37.0,35.4,30.01,East,91,0.0,2.0,94,0.08,,,0.15,VWS V13.01,2013-01-11 03:33:00,
2013-01-10 22:38:00,37.0,35.4,30.00,ESE,108,1.0,2.0,94,0.09,,,0.17,VWS V13.01,2013-01-11 03:38:00,
2013-01-10 22:43:00,37.0,35.7,30.00,ENE,68,3.0,6.0,95,0.11,,,0.18,VWS V13.01,2013-01-11 03:43:00,
2013-01-10 22:48:00,37.0,35.4,30.00,SE,124,3.0,3.0,94,0.13,,,0.20,VWS V13.01,2013-01-11 03:48:00,
2013-01-10 22:53:00,36.9,35.6,30.00,East,96,0.0,1.0,95,0.14,,,0.22,VWS V13.01,2013-01-11 03:53:00,
2013-01-10 22:58:00,36.9,35.6,30.00,East,101,3.0,4.0,95,0.15,,,0.24,VWS V13.01,2013-01-11 03:58:00,
2013-01-10 23:03:00,36.9,35.6,30.00,East,87,0.0,1.0,95,0.15,,,0.24,VWS V13.01,2013-01-11 04:03:00,
2013-01-10 23:08:00,36.9,35.6,29.98,East,86,1.0,3.0,95,0.16,,,0.25,VWS V13.01,2013-01-11 04:08:00,
2013-01-10 23:13:00,36.9,35.6,29.98,ENE,74,3.0,3.0,95,0.17,,,0.26,VWS V13.01,2013-01-11 04:13:00,
2013-01-10 23:18:00,37.0,35.7,29.98,ESE,110,3.0,4.0,95,0.17,,,0.26,VWS V13.01,2013-01-11 04:18:00,
2013-01-10 23:23:00,37.0,36.0,29.97,ESE,116,3.0,3.0,96,0.17,,,0.26,VWS V13.01,2013-01-11 04:23:00,
2013-01-10 23:28:00,37.0,36.0,29.97,East,90,2.0,3.0,96,0.16,,,0.26,VWS V13.01,2013-01-11 04:28:00,
2013-01-10 23:33:00,37.0,36.0,29.97,ESE,110,3.0,3.0,96,0.13,,,0.26,VWS V13.01,2013-01-11 04:33:00,
2013-01-10 23:38:00,37.1,36.1,29.97,East,93,5.0,5.0,96,0.11,,,0.26,VWS V13.01,2013-01-11 04:38:00,
2013-01-10 23:43:00,37.1,36.1,29.97,East,101,2.0,4.0,96,0.11,,,0.27,VWS V13.01,2013-01-11 04:43:00,
2013-01-10 23:48:00,37.2,36.2,29.97,ESE,103,3.0,3.0,96,0.09,,,0.28,VWS V13.01,2013-01-11 04:48:00,
2013-01-10 23:53:00,37.3,36.3,29.96,ESE,106,1.0,1.0,96,0.08,,,0.28,VWS V13.01,2013-01-11 04:53:00,
2013-01-10 23:58:00,37.3,36.3,29.96,ESE,108,8.0,8.0,96,0.07,,,0.29,VWS V13.01,2013-01-11 04:58:00,